Vorticity
7 7 4 12 2 23 21 -2 6 3 9 12 4 6 9 3 12 5 13 4 4 1 13 13 18 10 6 6 3 3 4 3 4 4 5 5 4 2 2 3 5 5 6 7 7 6 6 5 6
10 0 15 5 24 5 -10 5 18 11 9 1 5 16 4 9 1 0 6 2 4 4 4 5 6 8 17 8 5 4 3 4 4 5 5 3 4 3 3 3 3 5 5 6 7 7 6 5 5
10 12 -6 2 -0 2 -2 5 -0 4 5 5 5 1 3 8 3 4 3 2 3 4 4 4 3 4 6 18 14 9 3 3 4 4 5 4 5 3 4 3 3 4 5 6 6 6 8 5 6
7 10 11 27 2 13 10 -0 4 4 5 6 9 12 6 -1 3 3 2 1 6 6 6 5 4 4 3 6 8 18 12 3 3 4 4 5 4 6 4 4 3 4 5 5 6 7 8 6 5
13 5 10 8 -1 -1 3 1 12 23 8 7 9 32 3 1 4 3 4 3 -0 3 4 6 7 6 5 3 5 7 18 9 4 3 4 5 5 4 4 1 4 3 4 4 5 6 8 7 5
-4 3 12 -1 4 2 -0 -0 4 6 7 7 4 4 -3 3 4 4 4 9 8 5 6 7 9 11 12 10 7 3 11 10 9 4 4 4 5 4 4 6 1 4 4 5 5 5 7 6 5
8 10 15 -1 -6 -2 -1 -0 8 4 11 14 12 9 10 5 4 8 9 10 11 11 11 9 8 8 11 13 13 12 5 1 25 8 2 4 4 5 4 3 6 2 3 4 6 5 5 6 8
6 9 6 4 4 -8 3 7 2 -2 11 10 10 2 7 8 8 10 9 11 14 16 17 18 17 20 15 15 16 14 12 8 2 24 6 4 4 4 5 4 4 3 5 3 4 5 5 6 7
13 17 9 -2 -7 5 -0 -2 5 8 7 5 9 6 8 9 11 10 12 12 10 10 13 13 16 14 18 23 22 20 20 13 11 5 16 12 5 5 3 6 2 6 5 3 -2 5 5 5 7
5 0 9 19 19 5 2 4 7 6 7 8 5 8 10 11 12 14 14 13 11 9 7 7 7 10 10 7 11 19 26 25 20 11 9 -8 24 5 4 4 6 5 5 6 6 -2 5 7 8
20 17 -1 10 9 0 3 -3 6 12 1 7 12 15 12 9 8 8 8 8 8 6 6 7 8 8 8 9 8 5 7 17 26 30 17 18 10 8 8 5 5 3 5 5 5 4 0 5 8
16 2 -3 5 -2 -2 10 5 -0 8 9 9 10 8 8 8 6 4 3 2 2 3 4 5 5 5 6 7 7 7 11 6 6 18 29 29 16 16 16 5 -27 7 8 4 6 4 3 0 5
17 3 8 8 8 0 8 2 2 10 6 6 4 4 3 6 7 6 5 5 5 5 5 6 6 6 6 6 5 9 8 10 8 6 7 23 31 19 16 14 -9 30 -8 22 3 7 6 -4 3
8 11 1 2 6 13 13 12 20 2 6 3 2 2 2 2 2 4 5 4 4 4 6 8 9 8 9 7 5 9 7 10 11 10 12 7 18 24 26 19 15 1 -6 16 25 3 7 10 -6
8 -1 3 -0 2 7 1 10 14 4 3 2 2 2 3 4 4 4 4 7 9 10 9 10 12 13 12 13 14 11 8 11 11 9 9 14 11 12 18 30 19 30 18 22 -9 -9 4 4 11
4 8 -11 7 0 2 6 3 3 5 1 3 4 5 4 3 4 5 4 6 6 8 8 8 6 8 15 12 9 11 14 12 11 11 7 14 9 14 10 13 33 15 21 18 -34 -19 13 7 11
-18 10 17 7 -5 14 6 3 6 16 8 6 3 3 4 6 5 4 4 5 6 6 8 10 10 9 12 10 10 8 11 13 10 12 7 13 15 11 15 8 18 29 17 14 5 48 -38 60 9
13 9 -1 9 12 20 7 3 -3 -1 3 9 2 -3 2 4 6 6 5 6 6 6 11 14 12 12 12 9 9 9 7 11 12 12 9 10 12 15 13 16 8 21 34 18 18 -3 86 22 18
51 14 6 14 -1 7 -10 2 2 6 4 4 -0 -2 0 4 7 8 8 7 7 14 13 8 9 12 13 14 13 11 11 7 10 14 10 9 8 11 13 16 16 7 23 33 16 15 -20 26 -13
16 -2 24 -1 -2 3 5 4 3 7 1 -0 3 -4 2 13 9 7 7 8 11 8 6 6 7 8 9 11 12 13 15 9 12 11 13 11 8 8 11 13 16 14 7 28 35 10 27 6 17
1 12 -1 24 5 16 11 6 3 9 4 -1 -6 -3 12 9 6 7 7 10 7 4 4 4 5 7 9 10 10 12 12 13 12 10 14 13 13 7 7 12 11 15 13 10 32 34 27 -4 -3
-8 9 15 5 -7 10 11 14 3 8 -3 -7 -3 -1 12 7 8 8 11 8 5 5 4 3 4 5 7 9 11 10 11 13 13 12 12 13 13 11 5 7 10 14 13 12 17 33 18 32 7
-1 -2 9 3 14 4 -5 10 24 15 -13 2 -13 7 10 6 8 11 8 4 5 4 4 4 4 6 7 9 11 12 13 13 14 15 14 16 14 13 9 7 7 13 12 10 16 21 30 18 33
23 7 -5 4 4 12 18 4 40 -2 -4 3 5 7 8 7 10 11 6 5 4 4 4 5 5 6 9 9 14 13 10 13 14 15 16 17 15 13 10 8 7 9 16 11 10 16 22 31 24
7 -7 8 5 10 -2 12 13 -4 10 12 4 -3 5 8 9 9 7 5 4 2 3 5 6 7 9 10 11 14 12 12 13 15 18 16 15 15 14 12 10 8 8 14 13 10 12 15 24 28
-1 -16 3 8 8 5 5 10 9 11 6 3 -2 5 7 13 7 5 3 3 2 2 6 7 9 10 11 14 12 12 13 13 15 15 16 16 15 13 12 10 8 8 11 16 10 9 15 16 27
15 11 9 1 6 13 6 16 9 2 5 3 -0 7 8 12 4 3 3 2 2 3 8 8 9 13 10 11 14 12 11 13 14 13 14 15 15 16 14 12 11 9 13 15 12 6 12 15 22
1 17 10 9 2 7 18 14 -15 -4 5 1 1 8 10 10 4 3 2 2 3 7 9 8 10 11 13 11 13 12 12 14 12 12 12 12 13 14 16 15 13 11 15 15 12 8 10 14 20
7 4 -1 8 1 10 4 21 10 11 6 2 5 8 10 9 4 3 2 4 6 10 8 7 11 11 12 12 12 12 11 11 12 11 11 11 12 15 17 16 14 14 16 15 11 8 10 11 18
13 7 6 -1 18 4 -2 17 17 5 3 5 7 8 11 9 3 3 3 7 10 9 7 6 11 12 14 11 12 10 11 11 12 11 11 10 10 12 15 17 15 16 16 15 12 9 8 6 18
Height
3183 3182 3182 3183 3186 3185 3186 3192 3190 3190 3189 3187 3187 3187 3186 3185 3186 3193 3190 3188 3187 3185 3183 3182 3180 3179 3178 3177 3176 3176 3176 3175 3174 3174 3173 3173 3173 3172 3171 3170 3169 3168 3167 3166 3166 3165 3164 3166 3166
3183 3182 3182 3182 3183 3184 3191 3193 3190 3190 3189 3189 3188 3187 3187 3184 3184 3186 3188 3188 3186 3185 3182 3181 3179 3177 3175 3174 3173 3172 3171 3171 3171 3171 3171 3170 3170 3169 3169 3168 3167 3166 3165 3165 3164 3164 3164 3164 3165
3183 3182 3182 3181 3181 3186 3191 3192 3192 3191 3189 3189 3189 3187 3186 3184 3184 3184 3185 3186 3184 3182 3180 3178 3176 3175 3173 3172 3171 3170 3169 3168 3168 3168 3167 3167 3166 3165 3166 3165 3164 3163 3163 3162 3162 3162 3163 3161 3163
3183 3182 3182 3180 3183 3188 3192 3192 3191 3192 3190 3190 3189 3188 3186 3183 3182 3184 3184 3184 3182 3179 3177 3175 3173 3171 3169 3168 3166 3164 3164 3163 3163 3162 3162 3162 3162 3162 3161 3162 3161 3160 3160 3160 3159 3160 3161 3161 3160
3182 3181 3181 3183 3185 3189 3192 3192 3192 3192 3189 3188 3187 3186 3186 3182 3181 3182 3182 3181 3178 3174 3172 3170 3169 3166 3164 3163 3161 3160 3157 3157 3157 3158 3157 3156 3157 3157 3156 3157 3158 3158 3157 3156 3157 3158 3158 3160 3159
3179 3179 3181 3182 3186 3190 3192 3192 3191 3190 3188 3187 3186 3186 3186 3181 3179 3179 3180 3177 3175 3170 3166 3164 3162 3160 3158 3156 3155 3154 3152 3149 3151 3151 3150 3149 3150 3150 3150 3150 3151 3153 3154 3154 3154 3154 3156 3157 3158
3178 3179 3181 3183 3185 3187 3189 3191 3191 3189 3187 3184 3185 3185 3186 3183 3180 3177 3177 3173 3170 3168 3163 3159 3156 3154 3151 3149 3146 3145 3144 3142 3141 3141 3143 3144 3143 3144 3143 3145 3146 3145 3149 3150 3150 3151 3152 3153 3157
3177 3177 3181 3184 3183 3184 3188 3189 3189 3189 3186 3186 3185 3183 3185 3181 3179 3176 3174 3170 3166 3164 3160 3157 3153 3149 3147 3144 3141 3138 3135 3134 3133 3134 3134 3136 3136 3135 3137 3137 3138 3140 3139 3143 3146 3147 3149 3148 3152
3176 3177 3180 3183 3184 3183 3187 3190 3189 3187 3188 3186 3184 3183 3182 3179 3177 3176 3173 3169 3164 3160 3156 3152 3149 3145 3141 3138 3135 3132 3129 3127 3126 3125 3126 3126 3127 3127 3128 3131 3130 3132 3134 3134 3139 3141 3143 3144 3146
3177 3177 3180 3183 3184 3184 3188 3188 3187 3186 3186 3184 3184 3183 3181 3178 3175 3172 3170 3165 3161 3157 3153 3150 3147 3143 3139 3135 3131 3128 3124 3120 3118 3116 3116 3117 3118 3118 3119 3121 3122 3124 3128 3130 3131 3134 3137 3140 3141
3176 3178 3182 3185 3187 3189 3189 3187 3186 3186 3185 3184 3183 3182 3180 3177 3173 3169 3166 3163 3159 3156 3153 3149 3145 3141 3136 3132 3128 3124 3120 3115 3111 3108 3107 3107 3107 3107 3110 3108 3114 3115 3120 3122 3124 3126 3130 3134 3138
3176 3180 3184 3186 3189 3189 3188 3186 3184 3183 3182 3182 3181 3181 3180 3177 3173 3169 3165 3162 3159 3156 3151 3148 3144 3139 3134 3129 3124 3120 3116 3111 3106 3104 3100 3098 3098 3097 3098 3097 3100 3104 3109 3113 3116 3118 3121 3126 3130
3178 3181 3184 3187 3190 3189 3188 3185 3184 3182 3182 3181 3180 3179 3178 3176 3174 3171 3166 3163 3159 3155 3151 3146 3141 3136 3131 3126 3121 3116 3111 3106 3101 3099 3095 3091 3088 3087 3086 3088 3089 3096 3099 3103 3106 3111 3112 3116 3121
3182 3183 3185 3187 3187 3188 3189 3186 3185 3185 3185 3182 3180 3178 3176 3173 3171 3169 3166 3162 3158 3152 3147 3142 3137 3132 3127 3122 3117 3112 3107 3102 3098 3094 3089 3085 3082 3078 3077 3077 3080 3082 3084 3090 3092 3099 3102 3106 3111
3183 3182 3185 3186 3186 3187 3188 3187 3186 3187 3186 3183 3181 3177 3176 3173 3170 3166 3162 3157 3154 3151 3146 3141 3135 3128 3123 3117 3113 3107 3103 3097 3093 3089 3084 3079 3075 3072 3070 3068 3072 3073 3075 3075 3076 3085 3093 3095 3098
3183 3184 3185 3187 3187 3188 3190 3190 3189 3189 3186 3184 3182 3180 3178 3175 3170 3166 3161 3156 3151 3147 3143 3138 3132 3126 3120 3115 3108 3103 3099 3093 3087 3084 3078 3073 3069 3066 3063 3060 3059 3062 3063 3064 3068 3070 3080 3082 3086
3183 3184 3186 3189 3190 3188 3189 3190 3190 3189 3187 3185 3184 3182 3179 3176 3171 3166 3161 3156 3150 3146 3141 3135 3128 3123 3117 3112 3106 3100 3096 3090 3084 3079 3073 3068 3064 3059 3056 3054 3052 3051 3053 3056 3058 3066 3065 3064 3067
3181 3183 3184 3187 3190 3189 3188 3188 3189 3189 3188 3186 3184 3181 3178 3175 3170 3166 3160 3156 3151 3146 3140 3133 3125 3120 3114 3108 3103 3098 3093 3087 3081 3075 3069 3063 3059 3054 3049 3047 3045 3043 3042 3045 3047 3049 3053 3062 3059
3178 3182 3183 3186 3188 3189 3188 3189 3188 3188 3187 3184 3183 3180 3178 3174 3170 3165 3160 3155 3149 3144 3139 3131 3125 3118 3111 3105 3098 3093 3087 3082 3076 3070 3065 3059 3053 3049 3045 3041 3038 3037 3034 3035 3038 3040 3047 3049 3056
3180 3181 3184 3187 3187 3188 3188 3188 3188 3189 3187 3185 3183 3180 3177 3174 3171 3165 3159 3154 3148 3143 3137 3131 3124 3117 3110 3102 3095 3088 3082 3077 3071 3066 3061 3055 3050 3045 3040 3036 3032 3030 3029 3028 3030 3035 3041 3044 3047
3181 3182 3183 3185 3187 3189 3189 3188 3188 3189 3187 3185 3183 3180 3177 3174 3168 3164 3158 3152 3147 3142 3135 3128 3121 3114 3107 3100 3093 3086 3079 3072 3066 3061 3056 3050 3045 3041 3036 3032 3028 3026 3023 3022 3023 3026 3030 3038 3037
3181 3183 3185 3186 3188 3189 3189 3189 3188 3188 3186 3184 3183 3181 3176 3172 3167 3163 3157 3152 3147 3140 3133 3126 3119 3112 3104 3097 3089 3081 3073 3065 3059 3053 3050 3045 3041 3036 3032 3027 3024 3022 3020 3017 3016 3018 3020 3024 3032
3182 3183 3186 3187 3187 3188 3188 3189 3186 3186 3185 3183 3182 3179 3174 3170 3166 3161 3156 3151 3143 3138 3132 3124 3117 3110 3101 3093 3086 3077 3069 3062 3055 3049 3044 3040 3035 3031 3027 3023 3019 3017 3016 3014 3012 3012 3012 3016 3021
3181 3184 3186 3187 3186 3187 3186 3187 3184 3183 3184 3182 3180 3176 3171 3168 3164 3159 3155 3149 3142 3136 3129 3123 3115 3107 3098 3089 3082 3073 3065 3058 3051 3044 3039 3034 3030 3027 3022 3019 3015 3013 3011 3010 3009 3007 3006 3008 3013
3181 3183 3186 3190 3189 3187 3184 3184 3181 3181 3181 3180 3178 3173 3169 3166 3162 3158 3152 3146 3140 3133 3128 3121 3113 3104 3096 3087 3079 3071 3063 3054 3047 3040 3033 3029 3025 3022 3018 3015 3012 3009 3007 3006 3004 3003 3002 3002 3004
3180 3182 3182 3193 3189 3183 3183 3181 3178 3177 3177 3176 3174 3171 3167 3164 3160 3155 3149 3143 3138 3132 3126 3119 3111 3102 3093 3085 3076 3068 3060 3051 3044 3038 3031 3026 3021 3018 3015 3011 3007 3004 3002 3001 2999 2997 2996 2996 2997
3178 3180 3182 3183 3184 3182 3179 3178 3176 3174 3174 3173 3172 3169 3165 3161 3157 3152 3147 3142 3136 3131 3124 3117 3108 3100 3091 3082 3074 3066 3058 3049 3042 3036 3030 3024 3018 3014 3011 3007 3004 3000 2998 2997 2995 2993 2991 2990 2990
3176 3178 3180 3181 3185 3188 3174 3174 3172 3171 3172 3171 3168 3166 3162 3159 3155 3150 3146 3139 3134 3129 3122 3115 3108 3098 3089 3081 3072 3064 3056 3049 3041 3035 3028 3022 3016 3010 3007 3004 3001 2996 2994 2993 2991 2989 2987 2985 2984
3173 3174 3176 3177 3177 3178 3182 3169 3167 3168 3168 3167 3165 3163 3159 3155 3152 3148 3142 3138 3134 3128 3122 3114 3106 3097 3088 3079 3070 3063 3055 3047 3040 3034 3027 3021 3014 3008 3004 3000 2997 2993 2991 2989 2988 2986 2983 2982 2980
3169 3170 3172 3172 3174 3173 3174 3168 3166 3166 3166 3164 3162 3159 3156 3152 3149 3145 3141 3138 3134 3127 3121 3113 3105 3095 3086 3077 3069 3062 3054 3047 3040 3033 3026 3020 3013 3007 3001 2997 2994 2990 2988 2986 2984 2982 2980 2978 2976